Tracking 22459 objects as of 3-Mar-2021
HD Live streaming from Space Station
objects crossing your sky now

TITAN 3C TRANSTAGE DEB

Track TITAN 3C TRANSTAGE DEB now!
10-day predictions


NORAD ID: 26049
Int'l Code: 1965-108AH
Perigee: 461.9 km
Apogee: 13,560.2 km
Inclination: 27.2 °
Period: 256.8 minutes
Semi major axis: 13382 km
RCS: 0.0672 m2 (small)
Launch date: December 21, 1965
Source: United States (US)
Launch site: AIR FORCE EASTERN TEST RANGE (AFETR)

Note: This is SATELLITE DEBRIS
aabbcc
Your satellite tracking list
Your tracking list is empty




NASA's NSSDC Master Catalog

Two Line Element Set (TLE):
1 26049U 65108AH  21060.73803525  .00002035  00000-0  20692-2 0  9994
2 26049  27.2067 279.5138 4893968  93.8411 321.1387  5.60811567   357
Source of the keplerian elements: AFSPC